Theta_e
298 297 297 298 298 298 298 299 300 300 300 301 302 302 302 302 303 303 304 304 304 304 303 302 302 303 303 302 302 302 302 301 301 301 300 301 300 301 301 300 298 297 297 298 297 299 299 299 299 299 299 299 301 301 302 303 304 303 303 304 304 305
297 297 297 297 297 298 298 298 299 299 300 300 300 301 301 301 301 302 302 302 302 302 301 301 301 301 301 301 301 301 300 299 299 298 297 298 299 298 297 295 295 295 295 296 296 296 296 297 297 298 297 298 297 298 299 300 299 301 301 301 303 303
296 296 296 296 296 296 297 298 298 298 299 299 299 300 300 300 300 300 300 300 299 299 298 299 299 299 299 299 299 298 298 297 297 295 295 294 295 294 294 294 293 293 293 293 293 293 293 294 295 295 296 295 295 296 295 297 298 299 300 300 300 300
295 295 295 294 295 295 295 297 297 297 297 298 298 299 299 299 299 299 299 298 298 297 297 297 297 297 297 296 296 295 295 294 294 292 293 293 293 292 292 292 293 292 293 292 291 292 291 291 293 291 292 292 292 293 296 295 295 295 296 297 298 298
294 294 294 295 295 295 295 295 296 296 296 296 296 297 297 298 298 298 298 297 297 296 296 295 295 295 294 294 294 294 294 293 292 291 291 291 291 291 291 291 293 292 290 290 290 291 290 291 290 290 290 290 289 290 292 293 292 294 294 295 295 295
293 295 295 296 295 294 295 295 295 295 295 295 295 295 296 296 297 297 297 296 295 295 295 294 294 293 293 293 292 292 290 290 290 290 290 289 290 292 291 290 290 289 289 289 288 288 289 289 288 288 289 290 289 288 290 289 289 292 293 293 294 294
295 296 296 295 294 294 294 294 294 294 294 294 294 294 294 295 295 295 295 294 294 293 293 292 291 291 291 291 290 289 289 288 288 289 289 290 290 290 289 289 288 288 289 292 289 290 288 289 289 289 288 288 288 288 289 290 289 290 291 292 292 291
295 295 294 294 294 294 294 293 293 293 293 293 292 294 293 294 294 294 293 292 291 291 290 290 289 289 289 289 289 288 288 289 288 288 288 287 289 287 288 287 287 287 288 287 288 288 288 288 288 288 289 289 288 288 289 289 289 289 290 290 291 290
295 295 294 294 293 293 293 293 292 292 292 292 292 292 292 293 292 292 291 290 289 289 289 289 288 289 288 288 288 288 287 287 286 286 286 286 286 286 286 286 286 287 286 287 287 288 288 289 288 288 289 289 288 288 288 288 288 289 289 289 289 290
294 293 292 292 292 292 292 292 292 292 291 291 291 291 292 293 291 290 290 289 289 289 289 288 287 288 288 287 287 286 286 285 285 285 284 284 284 285 284 285 286 285 285 286 286 287 287 287 287 287 287 287 287 288 287 287 287 287 288 288 288 288
293 292 292 292 291 291 291 291 291 291 290 290 290 290 291 290 290 289 288 288 288 288 288 288 287 287 287 286 285 285 285 285 284 283 283 283 283 286 284 285 284 285 285 285 285 286 287 289 290 289 288 289 288 287 287 287 287 287 287 287 287 288
293 292 292 291 291 291 291 291 290 290 289 289 289 290 289 289 288 288 288 288 287 287 286 287 286 286 285 284 284 284 284 283 283 283 283 283 283 283 283 284 284 284 285 285 285 285 287 288 289 289 291 291 289 287 287 287 286 286 286 286 286 287
293 293 292 292 292 291 291 291 290 289 288 288 288 288 288 287 287 287 287 287 286 286 285 285 285 284 284 283 283 283 283 283 283 283 283 283 283 283 283 284 283 283 284 283 284 284 286 287 288 289 292 292 293 289 286 285 285 285 285 285 286 286
293 293 292 292 291 291 290 290 289 288 288 287 287 287 287 287 286 286 286 285 285 285 285 284 284 284 283 283 283 283 283 283 283 283 282 282 282 283 283 283 283 283 283 284 282 283 284 285 287 290 291 291 292 291 288 286 285 285 285 285 285 285
293 293 292 291 291 290 289 289 288 288 287 287 287 287 286 286 286 286 285 285 284 284 284 283 283 283 283 283 282 282 282 281 281 281 282 282 282 282 282 282 282 283 282 282 282 282 283 283 287 289 290 291 291 291 289 286 285 285 285 284 284 285
292 292 291 290 289 289 289 288 288 287 287 287 287 287 286 286 285 285 284 284 284 283 283 283 282 282 282 282 282 281 280 280 280 280 280 281 281 281 281 281 281 281 282 282 282 282 282 282 286 289 290 290 290 291 290 286 285 285 284 284 284 285
291 290 289 288 288 287 287 287 287 287 286 286 286 285 285 285 285 285 284 283 283 283 282 282 282 282 281 281 280 279 280 280 280 280 281 281 281 281 282 282 282 282 282 282 282 282 282 283 287 289 289 289 290 290 290 286 285 284 284 284 284 284
291 289 288 288 287 287 287 286 286 286 286 285 285 285 284 284 283 283 283 282 282 282 281 281 281 281 279 280 279 280 279 279 280 281 280 280 280 280 280 281 279 281 281 281 282 282 282 282 287 288 288 289 289 290 286 284 283 283 283 283 284 284
289 288 287 287 287 286 286 286 286 285 285 284 284 283 283 282 282 281 281 282 281 281 281 281 280 280 279 279 279 279 280 280 279 279 280 279 280 280 280 280 280 281 281 281 281 280 281 281 284 286 287 288 289 288 284 284 283 283 283 283 284 284
287 287 287 286 286 286 286 286 285 285 284 284 283 282 281 281 280 280 280 280 280 280 280 280 279 278 279 279 280 279 278 278 278 279 281 279 279 279 279 280 280 280 279 280 280 280 280 281 283 286 287 288 288 288 284 283 283 282 283 283 283 284
287 287 286 286 285 286 285 285 284 284 283 282 281 280 279 279 279 279 278 279 279 279 279 278 278 277 278 278 277 277 277 278 280 281 280 278 276 277 278 280 279 279 279 277 279 281 281 280 282 285 286 287 288 286 284 283 282 282 282 282 282 283
286 285 285 285 285 285 285 284 284 283 282 280 279 278 277 277 277 277 277 278 278 278 277 277 278 278 277 276 278 279 279 280 279 277 276 274 276 276 276 276 278 277 278 279 279 280 280 280 281 282 286 287 287 287 285 283 282 281 281 281 281 281
285 284 284 284 284 284 284 284 283 281 279 278 277 276 276 276 276 277 277 278 278 278 277 278 278 278 278 279 278 278 278 277 275 274 274 274 276 275 276 277 277 278 278 279 279 279 279 280 280 281 285 285 285 285 284 282 281 281 281 281 281 281
282 281 281 281 282 283 283 282 280 278 277 276 275 275 275 275 276 277 277 278 278 278 277 277 277 277 277 277 277 274 273 274 274 273 274 275 275 275 275 276 277 277 278 278 278 278 279 280 280 280 282 283 284 284 284 282 281 282 281 281 281 281
279 279 278 278 279 281 281 280 278 276 275 274 274 275 275 275 276 276 277 277 276 276 276 275 275 275 274 274 274 272 271 272 274 274 275 275 274 274 274 274 275 276 276 277 277 277 277 278 279 281 280 281 282 283 283 283 283 284 282 280 279 279
277 276 276 276 277 278 279 278 275 274 273 273 274 274 274 274 274 275 275 275 275 273 273 273 273 273 273 272 273 272 272 272 273 273 273 273 273 273 273 274 275 275 274 274 275 276 277 277 277 278 280 279 281 282 282 283 283 283 281 280 279 280
276 275 274 274 274 275 275 276 274 273 272 273 273 273 272 272 273 274 273 272 272 272 272 272 272 273 272 272 272 272 272 271 271 271 271 271 271 272 272 273 273 273 273 273 274 274 275 276 276 276 277 279 280 281 281 281 282 282 282 280 280 280
275 273 272 272 272 272 273 274 274 272 271 272 272 271 271 271 271 271 271 271 271 271 272 271 272 271 271 270 270 270 269 268 269 269 270 270 270 270 271 271 272 272 272 272 273 273 274 274 275 275 276 277 277 278 279 280 281 281 281 280 280 281
273 272 271 270 271 271 271 271 271 271 271 270 270 269 269 270 270 270 269 269 269 270 270 270 270 270 269 268 268 268 268 269 268 268 269 269 269 269 269 269 271 271 271 271 272 272 273 273 273 274 274 275 275 276 278 279 279 279 280 279 279 280
273 272 271 270 270 270 270 269 269 269 269 268 268 268 268 268 268 268 268 268 269 269 269 269 270 269 267 267 268 267 267 267 267 267 268 268 269 268 268 269 269 270 270 270 271 271 271 272 272 273 273 274 276 277 278 278 277 277 277 278 278 279
272 271 270 269 269 269 268 268 268 267 267 267 267 267 267 267 268 268 268 268 268 268 269 268 267 266 266 265 265 266 268 268 267 268 268 267 268 267 269 270 270 271 270 271 271 270 270 271 271 272 277 277 279 277 276 276 276 277 277 278 280 279
272 270 269 268 268 268 267 267 267 267 267 266 266 267 266 267 267 267 267 267 267 266 266 265 264 264 265 265 265 266 266 271 272 272 269 268 273 276 276 276 272 272 272 272 272 272 271 271 273 278 279 279 279 279 279 279 279 280 278 279 281 279
271 269 268 268 268 268 267 266 266 266 266 266 266 265 265 266 266 266 266 266 265 266 264 264 264 265 264 265 264 264 265 264 264 271 273 274 274 274 275 275 276 276 277 274 272 273 277 277 278 278 278 278 278 279 279 279 279 279 279 280 277 275
270 269 268 268 267 267 266 265 265 264 264 264 264 264 263 264 264 264 264 264 264 266 266 264 264 264 263 263 262 263 263 263 263 263 269 271 272 272 274 274 275 275 275 275 275 273 272 274 276 277 277 277 277 277 278 278 278 279 279 279 279 274
269 268 267 266 266 265 264 263 263 263 263 262 262 262 261 262 262 262 262 263 264 263 265 264 263 262 262 261 261 261 261 261 261 262 262 265 269 271 271 272 273 273 274 274 275 275 275 275 276 276 277 276 277 277 277 277 278 278 278 278 274 272
267 266 265 264 264 263 262 262 261 261 261 260 260 260 259 259 261 261 261 261 262 261 262 262 261 262 261 261 261 261 260 260 261 261 261 262 263 264 268 270 271 272 273 273 274 274 274 275 275 275 275 276 276 277 277 277 275 277 277 275 272 272
265 264 264 264 263 262 261 260 260 260 260 259 258 259 260 260 260 259 262 264 263 260 260 261 262 261 260 261 260 260 260 260 261 262 262 262 262 262 263 263 265 268 271 270 271 272 274 274 274 275 275 275 276 276 277 276 271 270 270 271 272 272
264 263 263 262 262 261 260 260 260 260 259 258 259 259 260 260 260 260 260 260 261 261 260 260 259 260 260 259 259 260 261 262 261 261 261 262 262 263 262 263 264 265 268 270 271 272 273 273 274 274 274 274 275 275 275 270 269 269 270 270 271 272
Wind_Speed
4 5 5 5 5 5 5 5 5 6 6 6 6 7 6 6 6 6 6 6 5 5 5 5 5 5 5 4 5 5 6 6 5 5 5 5 4 5 4 4 4 4 4 4 4 5 5 4 4 4 4 4 4 3 3 3 4 5 6 6 6 6
4 4 5 5 5 5 5 5 5 6 6 7 6 6 6 7 7 7 7 6 6 6 6 6 6 6 6 5 6 7 6 5 5 5 4 4 5 4 4 4 4 5 4 4 4 4 4 5 5 6 5 5 4 4 4 4 3 4 6 7 6 6
5 5 5 5 5 5 5 5 5 5 5 6 6 7 7 7 6 6 6 7 7 8 8 7 6 7 7 7 7 7 6 5 5 4 3 4 5 4 4 5 4 4 4 4 4 4 4 4 5 5 5 5 5 6 4 4 5 5 5 6 7 5
5 5 4 4 5 5 5 5 5 6 6 5 6 7 6 7 7 7 7 7 8 8 8 7 6 7 7 7 6 6 6 5 5 4 5 5 4 4 4 4 3 4 5 5 4 4 4 4 4 4 4 4 4 5 4 4 5 5 6 5 8 7
5 5 5 5 5 5 5 5 5 5 6 6 6 8 7 6 7 7 7 8 8 8 7 7 7 7 6 7 6 7 6 5 5 4 4 4 4 4 4 4 5 5 4 4 4 4 3 3 3 3 3 3 4 4 4 4 4 5 6 7 7 8
5 5 5 5 5 5 5 5 5 6 6 6 7 8 7 7 7 7 8 8 9 7 7 8 7 7 7 7 6 6 5 4 4 4 4 4 4 6 5 5 5 4 4 4 4 4 4 4 4 4 3 3 3 4 5 4 4 4 5 6 7 8
5 5 5 5 5 5 5 6 6 6 6 6 7 6 6 6 6 7 7 8 9 8 8 7 6 7 6 6 5 5 5 5 4 4 5 5 6 5 5 5 4 4 4 5 4 4 4 4 5 5 4 4 4 4 5 5 5 5 6 6 7 8
4 5 5 5 5 5 6 6 6 6 6 6 5 6 6 6 6 7 8 7 9 8 8 6 6 6 6 6 6 5 5 5 5 5 5 5 4 4 4 4 4 4 4 4 4 4 4 4 4 5 5 5 5 4 5 5 5 6 6 7 7 8
6 6 5 5 5 5 5 6 6 6 7 7 5 5 6 6 8 7 8 8 8 8 7 7 6 6 5 6 5 5 5 5 5 5 4 4 4 4 4 4 4 4 4 4 4 4 4 5 4 4 5 5 4 4 5 6 6 7 7 7 8 8
6 7 6 6 6 6 6 5 6 6 6 7 5 5 6 6 7 8 8 8 8 7 7 6 5 5 5 5 5 5 4 4 4 4 4 4 4 4 4 4 4 4 3 4 4 4 4 4 4 5 4 4 4 5 6 5 7 8 8 8 8 8
8 7 7 6 6 7 7 7 7 6 6 6 5 6 6 6 8 8 8 8 8 6 5 5 5 5 5 5 4 4 4 4 4 4 3 4 4 4 3 3 3 4 4 4 4 4 4 5 5 4 5 6 7 5 6 7 7 8 9 10 10 9
7 7 7 7 7 7 7 7 7 6 7 7 5 6 5 7 7 8 8 8 7 5 5 5 5 5 4 4 4 4 4 3 3 3 4 4 4 3 3 4 4 4 4 5 5 5 5 5 4 6 11 10 7 7 7 7 7 8 9 10 11 11
8 8 8 8 8 8 8 7 7 7 7 6 6 7 5 6 8 7 8 7 5 5 5 5 5 4 4 4 4 3 3 3 3 4 4 4 4 4 4 4 4 4 4 4 5 5 6 6 7 12 12 13 14 9 8 7 8 7 8 9 10 13
11 11 11 9 9 8 8 8 7 7 7 6 6 7 6 7 8 8 7 6 5 5 5 4 4 4 4 4 4 4 4 4 4 4 4 4 4 4 3 4 4 4 4 4 4 4 5 6 9 13 14 15 15 14 10 9 9 9 9 9 11 12
12 11 9 8 9 9 7 8 9 8 7 8 6 7 7 7 7 7 7 5 5 5 4 4 4 4 4 4 4 4 4 4 4 4 4 5 4 3 4 5 5 5 5 4 5 5 6 6 10 13 14 15 16 17 14 9 9 10 11 12 12 13
9 9 8 8 8 8 8 7 8 8 6 7 7 7 7 8 7 7 7 5 5 4 4 4 4 4 4 4 4 4 4 3 4 4 3 4 4 4 5 5 5 5 5 5 5 6 5 6 9 13 14 15 17 18 16 10 11 11 12 13 13 13
10 11 10 10 10 9 10 9 7 8 7 6 8 6 7 6 8 7 6 6 4 4 4 4 4 4 4 4 4 4 4 4 4 4 4 4 4 4 5 6 6 5 5 6 6 6 7 6 11 14 16 16 17 19 17 11 10 11 12 13 13 14
16 15 12 10 11 9 9 10 8 9 8 6 8 7 6 7 7 7 6 5 4 4 4 4 4 4 4 4 4 4 4 4 3 4 4 3 3 3 3 4 4 5 7 6 7 7 9 8 10 14 15 17 17 19 12 10 11 12 13 14 14 14
12 11 12 11 10 11 10 9 8 9 9 9 6 6 5 6 7 6 6 5 4 4 4 4 4 3 3 3 3 3 3 4 4 4 3 4 4 5 5 5 5 5 6 8 7 7 9 9 8 11 15 16 18 14 10 11 11 11 12 14 15 15
11 10 12 13 11 10 9 9 10 10 10 9 7 6 5 6 7 5 5 5 5 4 4 4 3 2 2 2 2 3 3 3 3 3 4 4 6 6 6 6 6 5 5 7 8 6 8 11 11 12 13 16 18 15 11 11 11 12 13 14 14 14
14 13 12 13 14 10 9 10 10 10 10 8 7 5 6 6 5 5 5 5 4 4 3 3 2 2 1 2 2 3 4 4 4 4 4 4 4 5 5 5 6 6 5 5 7 10 9 10 12 14 13 17 18 15 10 10 10 12 13 14 16 15
16 13 13 14 13 11 11 10 10 10 10 9 7 7 6 5 4 4 4 4 4 3 3 2 2 2 2 2 3 3 4 4 4 4 4 4 4 4 4 4 5 8 8 5 6 8 8 10 11 11 14 16 18 19 13 10 11 12 14 15 15 16
13 14 13 11 11 10 10 10 11 10 9 9 8 6 5 4 4 4 3 4 3 3 2 2 2 2 2 3 3 3 4 3 3 4 4 4 4 4 6 8 8 9 9 8 7 7 8 7 10 12 16 17 19 21 18 10 11 11 12 13 16 14
11 11 9 7 9 9 9 10 12 10 9 8 7 5 3 3 3 3 4 4 2 2 2 2 2 2 2 2 2 3 3 3 2 2 3 4 6 8 9 8 8 9 10 10 8 6 8 9 11 11 14 20 22 21 21 12 10 12 13 14 13 14
12 10 9 6 6 7 7 11 12 10 8 8 6 4 4 3 3 3 3 3 3 2 2 2 1 2 1 1 2 2 2 2 3 6 6 7 8 8 8 7 7 8 10 11 9 7 7 8 10 14 13 19 21 22 21 21 16 20 13 12 15 15
11 11 8 7 6 6 7 11 12 9 9 8 5 4 3 3 2 3 3 3 3 2 1 1 1 1 1 2 2 1 4 7 6 6 6 6 6 6 7 7 7 9 10 12 13 12 10 7 7 11 16 15 20 21 22 22 23 23 16 15 14 15
14 12 10 7 7 6 7 6 13 12 10 6 5 4 3 3 2 4 4 4 3 1 0 1 1 1 1 1 3 7 7 6 6 7 5 4 5 5 6 7 7 8 9 10 12 12 12 10 9 9 11 17 18 20 22 24 27 26 26 17 12 13
12 13 13 8 6 7 6 6 8 13 8 6 5 4 3 3 4 5 4 3 2 1 1 1 2 0 2 5 5 5 4 4 4 4 5 5 5 5 6 7 7 8 8 10 10 12 13 13 11 11 11 12 14 13 21 28 26 26 26 25 20 27
12 12 13 12 5 5 6 7 6 6 7 6 5 4 4 4 5 5 4 3 2 1 1 1 3 5 6 5 5 5 4 4 3 3 5 5 6 5 5 5 6 7 9 10 10 12 13 13 12 11 11 11 13 13 14 14 15 20 21 15 13 16
12 13 12 11 7 6 6 5 6 6 6 5 5 4 4 5 5 5 4 4 3 1 2 5 6 6 6 5 5 5 5 4 3 3 5 5 6 5 5 5 5 7 9 10 10 12 13 13 12 11 11 13 14 13 12 11 12 11 10 12 12 14
13 12 13 9 7 7 7 7 6 6 6 5 4 4 6 6 5 5 4 3 3 5 5 5 4 4 5 4 4 4 4 6 5 5 4 5 5 3 5 6 7 7 6 7 9 11 13 14 15 13 17 21 24 21 17 14 12 13 13 19 29 23
12 13 11 8 8 7 8 8 6 6 5 5 4 4 5 6 6 5 5 4 5 4 4 4 4 4 3 4 5 5 4 6 8 7 5 5 6 9 10 9 8 9 9 9 8 6 8 11 15 26 33 31 31 32 32 30 29 27 22 27 34 24
10 10 11 9 8 8 8 8 7 6 5 5 4 4 4 5 6 6 5 4 3 3 2 3 3 3 3 4 4 4 6 6 3 7 10 8 7 8 10 13 14 15 14 11 11 13 21 23 24 26 28 31 30 31 33 34 33 32 31 30 22 16
11 9 11 9 8 8 8 7 6 6 5 4 4 3 3 3 6 6 4 4 3 3 3 2 2 3 3 3 3 4 4 6 8 3 1 3 6 7 11 12 12 12 13 16 16 16 14 20 25 27 27 27 28 28 30 31 33 33 32 30 28 14
10 9 9 9 10 9 8 8 6 5 5 4 4 3 4 5 5 6 5 3 4 3 3 2 2 2 2 2 3 3 3 4 5 10 10 1 2 7 6 5 8 12 15 17 19 22 21 24 27 31 30 30 30 30 29 30 31 30 30 30 16 12
9 8 9 9 10 9 8 8 7 6 5 5 4 4 4 5 5 5 5 5 4 3 1 1 1 0 1 2 1 2 2 3 4 4 5 12 12 4 1 2 9 15 19 19 20 19 19 20 23 26 28 30 31 31 30 28 22 27 27 22 13 10
10 9 8 10 10 9 8 8 7 6 5 5 5 5 6 5 5 5 6 6 3 1 0 0 0 1 2 1 1 1 2 4 4 4 6 7 7 10 13 11 7 7 13 16 17 20 22 21 22 24 25 27 28 28 29 28 16 14 11 9 8 11
9 9 9 9 9 9 9 8 7 6 5 5 5 6 7 6 6 5 4 1 2 1 1 1 2 1 1 2 2 1 2 3 3 5 5 4 5 8 10 10 10 9 10 17 18 21 24 26 25 24 25 24 25 24 25 15 13 11 11 11 11 11
Wind_Direction
92 88 89 78 77 78 85 77 69 68 69 78 90 99 101 103 96 90 85 88 95 99 101 97 83 78 80 80 79 71 68 57 51 49 43 35 24 34 23 15 17 14 10 15 3 357 351 355 352 356 353 359 355 354 348 346 351 332 321 320 318 305
91 91 90 84 81 82 77 77 76 78 83 87 91 88 88 90 91 95 100 102 103 96 84 74 78 74 73 66 69 68 64 56 54 46 36 21 41 29 23 24 23 16 21 9 11 359 358 359 352 359 360 360 355 342 331 313 323 311 304 303 303 305
93 84 85 83 78 75 73 78 83 82 82 89 91 98 95 91 93 97 95 92 85 83 77 73 68 69 68 65 64 68 63 59 54 38 16 44 43 33 25 27 19 18 19 16 4 2 356 359 354 359 3 360 349 347 342 338 337 318 306 304 302 299
96 94 91 90 88 83 84 79 80 79 82 86 88 88 84 93 87 87 87 81 84 82 80 75 68 69 69 70 65 67 64 60 49 36 39 47 20 42 37 25 18 20 19 10 357 356 356 357 359 351 12 354 347 335 339 336 331 322 314 315 303 307
123 123 114 103 100 98 91 85 85 85 82 80 78 84 78 78 84 83 85 86 84 81 77 76 75 77 75 75 66 64 56 52 47 37 54 41 31 25 39 25 27 16 8 1 347 349 342 337 332 335 354 336 327 315 315 316 319 311 306 305 300 301
111 106 108 106 98 96 94 91 83 79 77 81 82 81 82 82 85 88 87 88 85 83 80 73 72 73 71 70 65 67 59 57 52 47 51 39 38 30 13 25 15 14 4 360 351 347 340 336 328 326 318 295 290 293 290 291 286 278 277 280 285 288
131 134 124 116 109 101 94 90 88 88 88 84 88 87 85 87 88 89 85 87 86 76 76 73 68 72 69 72 68 65 60 51 50 44 46 35 31 17 23 9 10 12 6 358 344 337 332 322 320 320 313 302 283 274 280 283 280 274 271 269 271 273
138 122 120 115 111 109 104 101 97 94 89 84 86 92 86 82 85 87 88 83 85 79 74 72 69 68 68 64 58 54 51 47 42 38 28 39 33 20 15 16 357 10 352 345 325 324 318 321 323 317 308 305 302 290 282 280 279 277 274 275 272 271
141 140 128 126 120 113 111 112 107 98 94 84 77 82 89 89 89 88 88 86 85 84 75 70 67 65 64 61 57 49 44 42 40 38 30 17 42 37 19 2 9 345 351 322 327 322 318 318 321 320 313 309 309 308 306 302 296 288 284 275 272 270
152 146 140 125 119 110 105 103 103 104 103 102 90 82 86 89 92 91 89 89 85 80 76 73 72 67 61 59 52 45 41 38 32 26 14 32 30 22 13 359 349 325 338 322 327 318 320 320 317 313 305 303 307 312 304 298 298 296 290 285 280 275
160 148 138 133 124 118 112 107 103 101 95 92 92 90 90 96 97 93 91 86 83 80 80 74 68 64 59 55 52 43 36 33 20 13 17 24 23 2 342 340 341 340 340 333 330 324 321 320 313 305 310 316 312 306 301 298 292 289 290 289 284 277
151 146 141 139 136 130 126 121 118 116 115 109 100 95 93 98 95 96 90 85 85 84 80 78 76 73 66 59 54 48 31 28 12 15 20 10 1 348 339 351 345 350 341 338 332 332 328 320 310 306 305 304 297 299 290 287 283 282 283 287 289 286
150 145 146 149 145 144 137 130 127 120 112 112 109 103 103 100 98 92 93 92 90 87 79 76 78 83 75 67 54 39 29 15 12 20 16 4 353 349 340 346 348 343 334 331 329 327 325 319 315 310 308 306 304 301 296 289 286 277 275 275 279 285
160 159 160 156 148 141 137 133 132 126 122 121 113 110 104 98 97 98 94 93 89 82 80 79 81 80 73 65 45 34 20 22 18 16 5 354 353 343 347 353 335 329 327 325 324 316 305 302 297 301 304 305 305 305 302 298 294 291 285 281 281 283
164 159 152 145 141 135 139 136 132 132 133 124 125 110 106 105 105 102 97 94 90 84 79 80 79 74 66 49 38 28 22 25 12 4 355 349 326 335 356 339 336 330 326 321 314 304 296 290 291 295 298 301 301 302 302 295 291 292 290 290 287 285
151 152 147 137 129 128 127 126 127 127 127 123 116 113 113 114 107 102 101 95 88 87 79 78 73 64 50 39 35 26 19 23 10 346 325 323 340 354 341 335 328 319 318 312 302 296 290 286 290 296 300 302 303 303 303 295 295 291 289 288 288 287
146 138 139 138 134 127 120 117 124 124 117 118 112 110 112 109 108 101 103 94 88 84 80 76 66 54 39 28 27 21 17 11 353 349 331 331 330 334 329 323 322 313 306 305 299 294 292 287 295 302 304 304 304 304 304 299 296 293 291 289 286 285
161 155 146 135 128 128 129 134 138 127 124 114 111 113 109 109 102 100 98 96 89 83 75 72 60 45 36 18 15 15 4 356 338 326 310 315 310 300 301 297 289 300 305 300 303 308 304 303 306 304 305 307 307 308 306 303 300 297 295 293 292 288
136 137 132 133 133 134 139 139 134 127 121 114 111 111 112 107 101 100 100 94 83 74 65 65 59 45 31 15 11 5 349 340 321 308 302 331 329 325 319 309 305 304 306 307 307 306 301 301 303 305 307 309 312 314 310 307 304 299 297 296 296 295
119 127 134 133 133 138 138 138 134 128 121 116 115 115 109 100 95 93 91 86 78 69 68 66 61 54 15 20 354 335 316 301 291 301 331 338 322 320 313 310 312 307 302 302 301 299 301 303 307 313 315 315 316 318 314 310 308 304 304 301 298 300
137 137 134 135 137 146 141 137 133 126 121 118 119 118 110 97 95 89 86 82 80 74 65 79 62 37 7 1 320 320 313 313 313 319 326 311 299 296 301 309 309 306 300 286 295 306 309 306 311 320 323 319 318 321 317 314 311 310 309 309 306 305
130 135 143 147 147 144 140 136 129 123 120 119 121 114 107 103 97 88 79 75 77 77 54 52 67 13 358 327 318 321 309 304 321 314 308 302 294 303 308 300 308 314 316 319 316 317 315 312 310 314 319 321 321 326 326 318 316 313 311 309 306 307
141 145 145 141 139 138 137 132 125 120 119 120 117 110 107 100 86 78 79 77 80 75 57 24 34 4 334 326 314 314 309 303 291 294 305 315 314 333 339 342 333 326 320 322 321 311 306 303 309 315 322 323 326 328 328 317 312 309 306 304 303 301
119 115 110 116 126 130 131 128 120 120 120 115 112 114 95 87 89 91 100 107 91 79 57 61 0 337 315 309 312 306 282 269 266 291 332 346 355 354 348 341 334 327 317 314 316 315 313 314 315 318 322 325 325 324 322 317 307 308 308 306 301 303
122 116 114 101 99 114 123 121 119 118 117 116 122 110 104 101 106 109 114 106 96 94 74 32 337 310 308 299 280 255 257 286 1 6 7 4 359 352 343 332 324 322 319 318 317 318 317 319 320 322 320 320 319 320 320 319 317 319 320 312 308 309
116 112 99 94 87 95 115 125 123 126 124 127 121 115 112 109 104 106 105 105 106 88 75 300 282 272 261 259 248 267 25 15 17 9 359 4 351 336 330 332 336 331 327 324 320 319 319 319 316 315 315 314 318 320 321 323 323 322 317 312 301 300
129 118 104 92 87 82 98 120 129 130 127 131 121 130 120 116 110 111 115 120 115 114 182 256 230 229 243 274 8 22 14 9 8 2 347 348 339 339 337 331 335 328 319 317 315 314 313 317 318 314 312 316 317 321 323 323 320 319 317 310 298 292
120 122 118 101 90 92 90 102 125 126 130 121 121 114 116 124 126 126 122 117 141 195 196 206 206 216 13 24 27 30 11 352 342 341 327 343 345 348 339 327 328 318 314 309 311 312 313 316 321 320 319 320 322 320 318 318 317 317 316 313 305 304
130 130 128 122 112 99 93 95 80 93 114 120 121 123 135 136 130 118 119 154 176 194 200 192 33 20 17 19 17 8 353 339 338 340 334 333 333 331 320 311 310 310 310 312 313 314 313 314 317 322 321 324 322 317 313 315 316 316 314 308 299 300
138 137 129 113 128 118 111 103 102 103 105 112 121 135 132 123 126 136 150 158 166 160 68 42 31 25 11 2 357 349 343 340 337 333 314 313 311 314 307 307 307 311 314 313 316 314 312 311 315 319 324 321 319 320 320 317 316 317 314 312 309 306
144 143 136 125 126 127 121 116 111 112 116 122 123 133 131 131 143 150 143 135 104 60 50 40 30 16 8 348 349 336 327 329 323 310 289 273 248 256 292 309 305 302 297 301 307 314 311 312 312 313 315 315 317 318 318 318 319 321 321 318 318 316
142 141 134 122 135 134 133 129 126 126 124 127 128 136 139 150 151 136 102 84 73 69 47 34 24 13 11 359 350 341 326 321 317 302 294 285 289 299 308 310 306 309 311 305 292 279 291 299 303 311 317 319 320 319 318 317 318 320 320 321 321 320
142 133 134 136 140 137 137 133 134 132 132 128 129 136 162 161 128 105 97 86 73 69 68 51 37 11 18 8 358 342 325 320 314 305 296 296 294 304 310 312 311 314 315 318 316 313 309 306 307 311 314 316 319 320 320 320 321 322 323 324 323 321
147 146 139 139 138 136 134 131 131 132 126 123 123 138 140 134 122 120 115 116 108 82 74 55 41 20 22 356 347 334 330 329 327 338 315 324 323 311 311 316 327 332 334 329 323 317 310 311 313 314 315 316 317 318 319 319 319 321 323 325 327 316
143 138 137 141 143 139 138 135 132 127 128 130 135 138 130 120 120 130 135 122 91 68 49 46 48 32 12 335 330 325 330 339 352 339 333 42 309 294 300 327 338 336 331 327 322 318 314 313 316 318 318 319 319 319 318 317 317 319 322 324 322 312
144 140 144 142 143 141 139 139 138 140 141 139 141 138 129 132 141 135 110 93 87 80 48 54 41 46 291 281 287 293 326 339 339 332 328 327 336 360 231 290 334 333 329 324 320 318 316 316 317 318 318 318 318 319 319 319 318 316 316 317 310 303
141 143 144 144 142 144 144 144 144 145 144 145 143 141 146 146 122 94 87 93 88 94 151 230 190 228 245 265 289 322 344 335 334 333 328 330 327 323 326 327 323 322 324 321 320 321 325 325 322 320 319 318 317 318 320 322 316 311 310 307 295 299
144 145 148 148 149 147 146 149 152 150 151 151 152 156 159 131 104 95 84 87 130 179 174 194 205 237 239 263 292 306 323 317 322 321 315 304 300 310 315 314 318 317 317 315 319 322 327 328 328 326 324 322 322 322 326 321 315 310 309 312 312 309